CUTE-1.7+APD II (CO-65)

Last updated on Fri Dec 19 2025 00:03:11 GMT+0000 (Coordinated Universal Time)

1 32785U 08021C 25351.68477250 .00005656 00000+0 38073-3 0 9996 2 32785 97.8081 324.8433 0007829 290.5969 69.4418 15.07103756957832
UTC large
Height (km)
Speed (km/s)
/
Latitude / Longitude
Inclination (degrees)
Orbital Period (minutes)
Azimuth
Elevation
Range (km)
Doppler Factor

Next 0 passes for location: London (51.5072 / 0.1276)

Sorry there are no passes over London.